(201637) = 2003 SB299

Discovered at Anderson Mesa on 2003-09-29 by LONEOS.

Orbit

Orbit type: Main Belt

Note: WebGL enabled browser required.

epoch2023-02-25.0
epoch JD2460000.5
perihelion date2021-10-16.78248
perihelion JD2459504.28248
argument of perihelion (°)116.27146
ascending node (°)341.68203
inclination (°)21.92242
eccentricity0.1829670
perihelion distance (AU)2.6030022
Tisserand w.r.t. Jupiter3.1
ΔV w.r.t. Earth (km/sec)12.1
semimajor axis (AU)3.1859206
mean anomaly (°)86.00497
mean daily motion (°/day)0.17332110
aphelion distance (AU)3.769
period (years)5.69
P-vector [x]-0.15874792
P-vector [y]0.71901058
P-vector [z]0.67662610
Q-vector [x]-0.98032153
Q-vector [y]-0.03333984
Q-vector [z]-0.19457172
absolute magnitude15.05
phase slope0.15
uncertainty0
referenceMPO 745323
observations used803
oppositions13
arc length (days)8890
first opposition used1998
last opposition used2023
residual rms (arc-secs)0.72
perturbers coarse indicatorM-v
perturbers precise indicator003Ek
first observation date used1998-12-12.0
last observation date used2023-04-15.0
computer nameMPCLINUX
JD of orbit computation2456966.829575
perihelion JD uncertainty (days)2.8542E-04
argument of perihelion uncertainty (°)5.0689E-05
ascending node uncertainty (°)9.7640E-06
inclination uncertainty (°)9.9362E-06
eccentricity uncertainty 5.4724E-08
perihelion distance uncertainty (AU)1.6214E-07
Minimum Orbit Intersection Distances (in AU)
for orbit epoch: 2460000.5, reference: E2023-H04
Mercury2.29792
Venus1.9267
Earth1.69489
Mars1.0695
Jupiter1.55545
Saturn6.30971
Uranus15.4513
Neptune26.5452

Observations

814 total observations over interval: 1998 12 12.38133 – 2023 04 15.421916
These data are available for download (format description).

Date (UT) J2000 RA J2000 Dec Magn Location Ref
1998 12 12.38133 07 28 47.16 +52 52 53.7 19.0   704 – Lincoln Laboratory ETS, New Mexico MPS 90563
1998 12 12.39556 07 28 46.27 +52 52 58.1 19.2   704 – Lincoln Laboratory ETS, New Mexico MPS 90563
1998 12 12.40996 07 28 45.42 +52 53 00.5 19.7   704 – Lincoln Laboratory ETS, New Mexico MPS 90563
1998 12 12.42397 07 28 44.61 +52 53 03.4 19.7   704 – Lincoln Laboratory ETS, New Mexico MPS 90563
1999 01 08.33537 06 54 18.60 +52 46 57.2 18.8 R 699 – Lowell Observatory-LONEOS MPS 90563
1999 01 08.35069 06 54 17.30 +52 46 53.2   699 – Lowell Observatory-LONEOS MPS 90563
1999 01 08.36603 06 54 15.95 +52 46 48.0   699 – Lowell Observatory-LONEOS MPS 90563
1999 01 14.19549 06 46 33.56 +52 13 42.3 18.7   704 – Lincoln Laboratory ETS, New Mexico MPS 90563
1999 01 14.21844 06 46 31.67 +52 13 33.6 19.4   704 – Lincoln Laboratory ETS, New Mexico MPS 90563
1999 01 14.24216 06 46 30.14 +52 13 24.8 19.8   704 – Lincoln Laboratory ETS, New Mexico MPS 90563
2003 09 19.32660 00 59 18.67 +25 11 27.5 18.9   644 – Palomar Mountain/NEAT MPS 89554
2003 09 19.34758 00 59 17.57 +25 11 32.5 18.9   644 – Palomar Mountain/NEAT MPS 89554
2003 09 19.37267 00 59 16.24 +25 11 38.6 18.8   644 – Palomar Mountain/NEAT MPS 89554
2003 09 29.18836 00 50 08.77 +25 42 20.0 19.0 R 699 – Lowell Observatory-LONEOS MPS 87386
2003 09 29.18921 00 50 08.57 +25 42 20.3 18.8 R 699 – Lowell Observatory-LONEOS MPS 87386
2003 09 29.20503 00 50 07.63 +25 42 20.4   699 – Lowell Observatory-LONEOS MPS 87386
2003 09 29.20588 00 50 07.65 +25 42 21.0   699 – Lowell Observatory-LONEOS MPS 87386
2003 09 29.22172 00 50 06.70 +25 42 24.4   699 – Lowell Observatory-LONEOS MPS 87386
2003 09 29.22256 00 50 06.58 +25 42 24.3   699 – Lowell Observatory-LONEOS MPS 87386
2003 09 29.23840 00 50 05.61 +25 42 25.1   699 – Lowell Observatory-LONEOS MPS 87386
2003 09 29.23925 00 50 05.49 +25 42 25.9   699 – Lowell Observatory-LONEOS MPS 87386
2003 10 02.29155 00 47 01.28 +25 47 59.9 19.1   704 – Lincoln Laboratory ETS, New Mexico MPS 87386
2003 10 02.33214 00 46 58.82 +25 48 03.6 19.3   704 – Lincoln Laboratory ETS, New Mexico MPS 87386
2003 10 02.34538 00 46 57.93 +25 48 05.1 19.6   704 – Lincoln Laboratory ETS, New Mexico MPS 87386
2003 10 18.21505 00 30 41.84 +25 47 40.5 18.9   644 – Palomar Mountain/NEAT MPS 89554
2003 10 18.25079 00 30 39.64 +25 47 37.3 18.8   644 – Palomar Mountain/NEAT MPS 89554
2003 10 18.29328 00 30 37.06 +25 47 33.7 18.9   644 – Palomar Mountain/NEAT MPS 89554
2003 10 22.20142 00 26 50.42 +25 40 45.0 19.3   704 – Lincoln Laboratory ETS, New Mexico MPS 89554
2003 10 22.21293 00 26 49.69 +25 40 45.3 19.7   704 – Lincoln Laboratory ETS, New Mexico MPS 89554
2003 10 22.22451 00 26 49.08 +25 40 43.4 19.5   704 – Lincoln Laboratory ETS, New Mexico MPS 89554
2003 10 22.23591 00 26 48.44 +25 40 42.0 19.7   704 – Lincoln Laboratory ETS, New Mexico MPS 89554
2003 10 22.24756 00 26 47.75 +25 40 40.6 19.7   704 – Lincoln Laboratory ETS, New Mexico MPS 89554
2003 11 21.08296 00 08 03.51 +24 11 12.0 20.2   644 – Palomar Mountain/NEAT MPS 91849
2003 11 21.10609 00 08 03.14 +24 11 07.7 19.7   644 – Palomar Mountain/NEAT MPS 91849
2003 11 21.12747 00 08 02.79 +24 11 04.0 19.9   644 – Palomar Mountain/NEAT MPS 91849
2003 12 18.13370 00 11 11.95 +23 23 49.4 19.6   704 – Lincoln Laboratory ETS, New Mexico MPS 93716
2003 12 18.14682 00 11 12.32 +23 23 49.1 20.0   704 – Lincoln Laboratory ETS, New Mexico MPS 93716
2003 12 18.17398 00 11 12.94 +23 23 47.8 20.0   704 – Lincoln Laboratory ETS, New Mexico MPS 93716
2003 12 18.18700 00 11 13.37 +23 23 47.7 20.1   704 – Lincoln Laboratory ETS, New Mexico MPS 93716
2005 01 17.49136 09 51 36.97 +32 05 05.2 18.6   704 – Lincoln Laboratory ETS, New Mexico MPS 130212
2005 01 17.50684 09 51 36.08 +32 05 04.6 19.4   704 – Lincoln Laboratory ETS, New Mexico MPS 130212
2005 01 17.52106 09 51 35.29 +32 05 05.3 19.3   704 – Lincoln Laboratory ETS, New Mexico MPS 130212
2005 01 17.53414 09 51 34.48 +32 05 04.9 19.2   704 – Lincoln Laboratory ETS, New Mexico MPS 130212
2005 01 31.31502 09 36 39.02 +31 56 03.2 18.8   704 – Lincoln Laboratory ETS, New Mexico MPS 125690
2005 01 31.32754 09 36 38.13 +31 56 01.6 18.5   704 – Lincoln Laboratory ETS, New Mexico MPS 125690
2005 01 31.34006 09 36 37.28 +31 56 01.3 19.4   704 – Lincoln Laboratory ETS, New Mexico MPS 125690
2005 02 02.27964 09 34 19.46 +31 52 16.2 18.8   704 – Lincoln Laboratory ETS, New Mexico MPS 125690
2005 02 02.29246 09 34 18.56 +31 52 14.7 19.4   704 – Lincoln Laboratory ETS, New Mexico MPS 125690
2005 02 02.30524 09 34 17.58 +31 52 13.4 19.0   704 – Lincoln Laboratory ETS, New Mexico MPS 125690
2005 02 02.31807 09 34 16.67 +31 52 11.7 19.1   704 – Lincoln Laboratory ETS, New Mexico MPS 125690
2005 02 02.33080 09 34 15.72 +31 52 09.8 19.4   704 – Lincoln Laboratory ETS, New Mexico MPS 125690
2005 03 01.23781 09 04 58.62 +29 46 37.8 18.8 R 703 – Catalina Sky Survey MPS 127183
2005 03 01.24591 09 04 58.16 +29 46 34.0 18.7 R 703 – Catalina Sky Survey MPS 127183
2005 03 01.25403 09 04 57.82 +29 46 30.5 18.6 R 703 – Catalina Sky Survey MPS 127183
2005 03 01.26210 09 04 57.31 +29 46 27.9 18.7 R 703 – Catalina Sky Survey MPS 127183
2008 08 27.34073 22 13 47.55 -17 51 21.6 20.1 i 568 – Maunakea MPS 1491231
2008 08 27.37818 22 13 45.42 -17 51 21.9 19.8 i 568 – Maunakea MPS 1491231
2008 08 27.41608 22 13 43.26 -17 51 22.1 19.7 i 568 – Maunakea MPS 1491231
2008 09 25.18141 21 50 35.88 -17 18 27.5 21.2 V G96 – Mt. Lemmon Survey MPS 256631
2008 09 25.18906 21 50 35.59 -17 18 26.7 21.8 V G96 – Mt. Lemmon Survey MPS 256631
2008 09 25.19669 21 50 35.26 -17 18 25.4 21.1 V G96 – Mt. Lemmon Survey MPS 256631
2008 09 25.20444 21 50 35.05 -17 18 24.0 20.9 V G96 – Mt. Lemmon Survey MPS 256631
2008 10 29.15822 21 42 21.02 -15 07 18.2 21.0 V G96 – Mt. Lemmon Survey MPS 261429
2008 10 29.16440 21 42 21.06 -15 07 15.7 20.4 V G96 – Mt. Lemmon Survey MPS 261429
2008 10 29.17057 21 42 21.06 -15 07 13.2 20.3 V G96 – Mt. Lemmon Survey MPS 261429
2008 10 29.17664 21 42 21.06 -15 07 11.8 20.6 V G96 – Mt. Lemmon Survey MPS 261429
2008 11 21.09484 21 49 55.48 -12 54 05.6 21.2 V G96 – Mt. Lemmon Survey MPS 265198
2008 11 21.10041 21 49 55.66 -12 54 02.9 20.6 V G96 – Mt. Lemmon Survey MPS 265198
2008 11 21.10606 21 49 55.81 -12 54 01.2 21.5 V G96 – Mt. Lemmon Survey MPS 265198
2008 11 21.11166 21 49 56.02 -12 53 59.2 21.4 V G96 – Mt. Lemmon Survey MPS 265198
2009 09 30.34086 02 54 36.72 +43 16 46.4 20.1 V 703 – Catalina Sky Survey MPS 298207
2009 09 30.34616 02 54 36.64 +43 16 50.5 20.5 V 703 – Catalina Sky Survey MPS 298207
2009 09 30.35147 02 54 36.43 +43 16 53.2 19.1 V 703 – Catalina Sky Survey MPS 298208
2009 09 30.35696 02 54 36.32 +43 16 56.3 18.9 V 703 – Catalina Sky Survey MPS 298208
2009 10 12.30609 02 46 33.74 +44 55 55.2 19.5   704 – Lincoln Laboratory ETS, New Mexico MPS 299217
2009 10 12.31922 02 46 33.10 +44 56 00.5 19.5   704 – Lincoln Laboratory ETS, New Mexico MPS 299217
2009 10 12.33234 02 46 32.38 +44 56 05.7 19.2   704 – Lincoln Laboratory ETS, New Mexico MPS 299217
2009 10 12.34544 02 46 31.70 +44 56 11.7 19.4   704 – Lincoln Laboratory ETS, New Mexico MPS 299217
2009 10 17.25207 02 41 59.17 +45 27 30.7 18.4 V 703 – Catalina Sky Survey MPS 300477
2009 10 17.25841 02 41 58.92 +45 27 32.1 18.6 V 703 – Catalina Sky Survey MPS 300477
2009 10 17.26490 02 41 58.52 +45 27 34.1 18.4 V 703 – Catalina Sky Survey MPS 300477
2009 10 17.27111 02 41 58.09 +45 27 38.6 19.2 V 703 – Catalina Sky Survey MPS 300477
2009 10 17.27742 02 41 57.69 +45 27 40.8 19.0 V 703 – Catalina Sky Survey MPS 300477
2009 11 08.28870 02 16 23.61 +46 20 41.9 19.0   704 – Lincoln Laboratory ETS, New Mexico MPS 303103
2009 11 08.30312 02 16 22.51 +46 20 40.7 19.1   704 – Lincoln Laboratory ETS, New Mexico MPS 303103
2009 11 08.31746 02 16 21.39 +46 20 39.4 19.0   704 – Lincoln Laboratory ETS, New Mexico MPS 303103
2009 11 08.33189 02 16 20.29 +46 20 38.3 18.6   704 – Lincoln Laboratory ETS, New Mexico MPS 303103
2009 11 08.34634 02 16 19.23 +46 20 37.1 18.6   704 – Lincoln Laboratory ETS, New Mexico MPS 303103
2010 01 05.13599 01 51 16.89 +41 02 22.4 18.9   704 – Lincoln Laboratory ETS, New Mexico MPS 310073
